Time,TemperatureF,DewpointF,PressureIn,WindDirection,WindDirectionDegrees,WindSpeedMPH,WindSpeedGustMPH,Humidity,HourlyPrecipIn,Conditions,Clouds,dailyrainin,SoftwareType,DateUTC
2014-02-14 00:01:00,22.3,20.5,29.65,SE,140,0.0,1.0,93,0.00,,,0.16,meteohub,2014-02-14 05:01:00,
2014-02-14 00:02:00,22.5,20.7,29.64,SE,140,0.0,1.0,93,0.00,,,0.16,meteohub,2014-02-14 05:02:00,
2014-02-14 00:04:00,22.5,20.7,29.64,SW,231,0.0,1.0,93,0.00,,,0.16,meteohub,2014-02-14 05:04:00,
2014-02-14 00:06:00,22.3,20.3,29.65,WSW,243,0.0,0.0,92,0.00,,,0.00,meteohub,2014-02-14 05:06:00,
2014-02-14 00:07:00,22.1,20.1,29.65,WSW,244,0.0,0.0,92,0.00,,,0.00,meteohub,2014-02-14 05:07:00,
2014-02-14 00:12:00,21.9,19.9,29.64,WSW,243,0.0,0.0,92,0.00,,,0.00,meteohub,2014-02-14 05:12:00,
2014-02-14 00:17:00,21.9,20.1,29.64,WSW,243,0.0,0.0,93,0.00,,,0.00,meteohub,2014-02-14 05:17:00,
2014-02-14 00:22:00,21.9,20.1,29.65,WSW,243,0.0,0.0,93,0.00,,,0.00,meteohub,2014-02-14 05:22:00,
2014-02-14 00:27:00,22.3,20.5,29.65,WSW,244,0.0,0.0,93,0.00,,,0.00,meteohub,2014-02-14 05:27:00,
2014-02-14 00:32:00,22.8,21.4,29.65,SE,141,0.0,0.0,94,0.00,,,0.00,meteohub,2014-02-14 05:32:00,
2014-02-14 00:37:00,24.1,22.6,29.65,SW,215,0.0,0.0,94,0.00,,,0.00,meteohub,2014-02-14 05:37:00,
2014-02-14 00:42:00,24.6,23.4,29.64,WSW,243,0.0,0.0,95,0.00,,,0.00,meteohub,2014-02-14 05:42:00,
2014-02-14 00:47:00,25.3,24.1,29.64,South,187,1.0,1.0,95,0.00,,,0.00,meteohub,2014-02-14 05:47:00,
2014-02-14 00:53:00,26.4,25.2,29.64,West,263,0.0,1.0,95,0.00,,,0.00,meteohub,2014-02-14 05:53:00,
2014-02-14 00:58:00,27.0,25.5,29.65,ESE,103,0.0,2.0,94,0.00,,,0.00,meteohub,2014-02-14 05:58:00,
2014-02-14 01:03:00,27.5,25.5,29.65,East,90,1.0,2.0,92,0.00,,,0.00,meteohub,2014-02-14 06:03:00,
2014-02-14 01:08:00,27.7,25.3,29.65,ESE,121,1.0,2.0,91,0.00,,,0.00,meteohub,2014-02-14 06:08:00,
2014-02-14 01:13:00,28.0,25.5,29.65,ESE,120,0.0,3.0,90,0.00,,,0.00,meteohub,2014-02-14 06:13:00,
2014-02-14 01:18:00,28.0,25.2,29.64,ESE,103,2.0,3.0,89,0.03,,,0.03,meteohub,2014-02-14 06:18:00,
2014-02-14 01:23:00,28.2,25.3,29.64,SSE,165,0.0,3.0,89,0.05,,,0.05,meteohub,2014-02-14 06:23:00,
2014-02-14 01:28:00,28.2,25.2,29.64,ESE,109,0.0,3.0,88,0.08,,,0.08,meteohub,2014-02-14 06:28:00,
2014-02-14 01:33:00,28.2,24.8,29.64,ESE,119,0.0,3.0,87,0.08,,,0.08,meteohub,2014-02-14 06:33:00,
2014-02-14 01:39:00,28.2,24.6,29.64,SSW,194,1.0,2.0,86,0.08,,,0.08,meteohub,2014-02-14 06:39:00,
2014-02-14 01:44:00,28.2,24.3,29.64,ESE,113,0.0,4.0,85,0.08,,,0.08,meteohub,2014-02-14 06:44:00,
2014-02-14 01:49:00,28.2,24.1,29.63,ESE,102,1.0,4.0,84,0.08,,,0.08,meteohub,2014-02-14 06:49:00,
2014-02-14 01:54:00,28.0,23.9,29.63,SE,141,0.0,4.0,84,0.08,,,0.08,meteohub,2014-02-14 06:54:00,
2014-02-14 01:59:00,27.9,23.7,29.63,East,96,1.0,3.0,84,0.08,,,0.08,meteohub,2014-02-14 06:59:00,
2014-02-14 02:04:00,27.9,23.4,29.63,ESE,114,1.0,3.0,83,0.08,,,0.08,meteohub,2014-02-14 07:04:00,
2014-02-14 02:09:00,27.9,23.0,29.62,ESE,102,0.0,3.0,82,0.08,,,0.08,meteohub,2014-02-14 07:09:00,
2014-02-14 02:14:00,27.7,22.8,29.62,ESE,110,1.0,4.0,82,0.07,,,0.08,meteohub,2014-02-14 07:14:00,
2014-02-14 02:19:00,27.5,22.5,29.63,ESE,113,1.0,4.0,81,0.05,,,0.08,meteohub,2014-02-14 07:19:00,
2014-02-14 02:24:00,27.5,22.5,29.62,SSE,158,2.0,3.0,81,0.01,,,0.08,meteohub,2014-02-14 07:24:00,
2014-02-14 02:29:00,27.5,22.5,29.62,ESE,123,0.0,3.0,81,0.01,,,0.09,meteohub,2014-02-14 07:29:00,
2014-02-14 02:34:00,27.3,21.9,29.62,ESE,113,1.0,3.0,80,0.01,,,0.09,meteohub,2014-02-14 07:34:00,
2014-02-14 02:39:00,27.5,22.1,29.62,SSE,150,1.0,3.0,80,0.01,,,0.09,meteohub,2014-02-14 07:39:00,
2014-02-14 02:44:00,27.7,22.1,29.62,WSW,250,0.0,3.0,79,0.01,,,0.09,meteohub,2014-02-14 07:44:00,
2014-02-14 02:49:00,27.7,22.1,29.62,SE,124,1.0,4.0,79,0.01,,,0.09,meteohub,2014-02-14 07:49:00,
2014-02-14 02:54:00,27.9,22.3,29.62,North,356,0.0,4.0,79,0.01,,,0.09,meteohub,2014-02-14 07:54:00,
2014-02-14 02:59:00,28.0,22.5,29.61,SSE,152,2.0,3.0,79,0.01,,,0.09,meteohub,2014-02-14 07:59:00,
2014-02-14 03:04:00,28.0,22.1,29.62,SE,134,0.0,4.0,78,0.01,,,0.09,meteohub,2014-02-14 08:04:00,
2014-02-14 03:09:00,28.2,21.9,29.61,ENE,65,0.0,5.0,77,0.01,,,0.09,meteohub,2014-02-14 08:09:00,
2014-02-14 03:14:00,28.4,21.7,29.61,ESE,123,1.0,5.0,76,0.01,,,0.09,meteohub,2014-02-14 08:14:00,
2014-02-14 03:19:00,28.8,21.6,29.61,ESE,113,5.0,6.0,74,0.02,,,0.10,meteohub,2014-02-14 08:19:00,
2014-02-14 03:25:00,28.9,21.4,29.62,South,174,0.0,6.0,73,0.01,,,0.10,meteohub,2014-02-14 08:25:00,
2014-02-14 03:30:00,29.1,21.6,29.62,SSE,155,0.0,8.0,73,0.01,,,0.10,meteohub,2014-02-14 08:30:00,
2014-02-14 03:35:00,29.1,21.6,29.62,SSW,211,1.0,8.0,73,0.01,,,0.10,meteohub,2014-02-14 08:35:00,
2014-02-14 03:40:00,29.1,21.2,29.62,SE,139,0.0,5.0,72,0.01,,,0.10,meteohub,2014-02-14 08:40:00,
2014-02-14 03:45:00,29.1,21.2,29.61,SE,144,1.0,4.0,72,0.01,,,0.10,meteohub,2014-02-14 08:45:00,
2014-02-14 03:50:00,29.1,21.2,29.61,SE,146,0.0,4.0,72,0.01,,,0.10,meteohub,2014-02-14 08:50:00,
2014-02-14 03:55:00,29.1,21.2,29.61,WSW,242,0.0,4.0,72,0.01,,,0.10,meteohub,2014-02-14 08:55:00,
2014-02-14 04:00:00,29.3,21.0,29.61,South,190,2.0,8.0,71,0.01,,,0.10,meteohub,2014-02-14 09:00:00,
2014-02-14 04:05:00,29.5,21.2,29.61,SSE,158,0.0,8.0,71,0.01,,,0.10,meteohub,2014-02-14 09:05:00,
2014-02-14 04:10:00,29.3,21.0,29.61,SE,146,0.0,8.0,71,0.01,,,0.10,meteohub,2014-02-14 09:10:00,
2014-02-14 04:15:00,29.3,21.4,29.61,SE,146,5.0,5.0,72,0.00,,,0.10,meteohub,2014-02-14 09:15:00,
2014-02-14 04:20:00,29.5,21.2,29.61,SE,124,0.0,8.0,71,0.00,,,0.10,meteohub,2014-02-14 09:20:00,
2014-02-14 04:25:00,29.5,21.2,29.61,ESE,110,0.0,8.0,71,0.00,,,0.10,meteohub,2014-02-14 09:25:00,
2014-02-14 04:30:00,29.5,21.2,29.62,SSW,200,0.0,8.0,71,0.00,,,0.10,meteohub,2014-02-14 09:30:00,
2014-02-14 04:35:00,29.5,21.2,29.62,SE,131,2.0,6.0,71,0.00,,,0.10,meteohub,2014-02-14 09:35:00,
2014-02-14 04:40:00,29.7,21.4,29.62,ESE,114,0.0,6.0,71,0.00,,,0.10,meteohub,2014-02-14 09:40:00,
2014-02-14 04:45:00,29.7,21.4,29.62,West,277,2.0,7.0,71,0.00,,,0.10,meteohub,2014-02-14 09:45:00,
2014-02-14 04:50:00,29.7,21.4,29.62,NNW,339,0.0,7.0,71,0.00,,,0.10,meteohub,2014-02-14 09:50:00,
2014-02-14 04:55:00,29.8,21.6,29.62,SSW,211,0.0,7.0,71,0.00,,,0.10,meteohub,2014-02-14 09:55:00,
2014-02-14 05:00:00,29.8,21.6,29.62,East,100,0.0,5.0,71,0.00,,,0.10,meteohub,2014-02-14 10:00:00,
2014-02-14 05:05:00,29.8,21.6,29.62,SSE,158,1.0,5.0,71,0.00,,,0.10,meteohub,2014-02-14 10:05:00,
2014-02-14 05:10:00,29.8,21.2,29.63,East,82,3.0,4.0,70,0.00,,,0.10,meteohub,2014-02-14 10:10:00,
2014-02-14 05:16:00,30.0,21.4,29.63,WSW,250,0.0,4.0,70,0.00,,,0.10,meteohub,2014-02-14 10:16:00,
2014-02-14 05:21:00,30.0,21.4,29.64,South,173,3.0,4.0,70,0.00,,,0.10,meteohub,2014-02-14 10:21:00,
2014-02-14 05:26:00,30.0,21.4,29.64,NNW,339,0.0,4.0,70,0.00,,,0.10,meteohub,2014-02-14 10:26:00,
2014-02-14 05:31:00,30.0,21.7,29.64,SSW,212,2.0,4.0,71,0.00,,,0.10,meteohub,2014-02-14 10:31:00,
2014-02-14 05:36:00,30.4,22.1,29.64,West,260,0.0,5.0,71,0.00,,,0.10,meteohub,2014-02-14 10:36:00,
2014-02-14 05:41:00,30.4,22.1,29.64,SE,143,0.0,9.0,71,0.00,,,0.10,meteohub,2014-02-14 10:41:00,
2014-02-14 05:46:00,30.4,21.7,29.64,East,81,1.0,9.0,70,0.00,,,0.10,meteohub,2014-02-14 10:46:00,
2014-02-14 05:51:00,30.4,22.1,29.64,SW,219,2.0,6.0,71,0.00,,,0.10,meteohub,2014-02-14 10:51:00,
2014-02-14 05:56:00,30.4,21.7,29.64,SE,127,1.0,6.0,70,0.00,,,0.10,meteohub,2014-02-14 10:56:00,
2014-02-14 06:01:00,30.6,22.3,29.63,West,264,0.0,8.0,71,0.00,,,0.10,meteohub,2014-02-14 11:01:00,
2014-02-14 06:06:00,30.6,21.9,29.63,North,8,0.0,8.0,70,0.00,,,0.10,meteohub,2014-02-14 11:06:00,
2014-02-14 06:11:00,30.6,21.9,29.63,SE,143,1.0,9.0,70,0.00,,,0.10,meteohub,2014-02-14 11:11:00,
2014-02-14 06:16:00,30.7,22.1,29.63,SE,124,1.0,9.0,70,0.00,,,0.10,meteohub,2014-02-14 11:16:00,
2014-02-14 06:21:00,30.7,22.1,29.64,North,0,0.0,9.0,70,0.00,,,0.10,meteohub,2014-02-14 11:21:00,
2014-02-14 06:26:00,30.7,22.1,29.63,ESE,113,1.0,7.0,70,0.00,,,0.10,meteohub,2014-02-14 11:26:00,
2014-02-14 06:31:00,30.7,22.1,29.63,East,83,0.0,7.0,70,0.00,,,0.10,meteohub,2014-02-14 11:31:00,
2014-02-14 06:36:00,30.9,22.3,29.63,East,92,0.0,6.0,70,0.00,,,0.10,meteohub,2014-02-14 11:36:00,
2014-02-14 06:41:00,30.9,22.6,29.63,East,92,3.0,10.0,71,0.00,,,0.10,meteohub,2014-02-14 11:41:00,
2014-02-14 06:46:00,30.9,22.6,29.63,SE,134,0.0,11.0,71,0.00,,,0.10,meteohub,2014-02-14 11:46:00,
2014-02-14 06:51:00,30.9,22.6,29.62,SE,146,2.0,11.0,71,0.00,,,0.10,meteohub,2014-02-14 11:51:00,
2014-02-14 06:56:00,31.1,22.5,29.62,ESE,107,3.0,7.0,70,0.00,,,0.10,meteohub,2014-02-14 11:56:00,
2014-02-14 07:02:00,31.3,23.0,29.62,SE,139,1.0,7.0,71,0.00,,,0.10,meteohub,2014-02-14 12:02:00,
2014-02-14 07:07:00,31.3,22.6,29.63,SSW,195,0.0,7.0,70,0.00,,,0.10,meteohub,2014-02-14 12:07:00,
2014-02-14 07:12:00,31.5,22.8,29.62,SW,229,1.0,7.0,70,0.00,,,0.10,meteohub,2014-02-14 12:12:00,
2014-02-14 07:17:00,31.5,22.8,29.62,ESE,121,2.0,14.0,70,0.00,,,0.10,meteohub,2014-02-14 12:17:00,
2014-02-14 07:22:00,31.5,22.8,29.63,SW,231,4.0,14.0,70,0.00,,,0.10,meteohub,2014-02-14 12:22:00,
2014-02-14 07:27:00,31.5,23.2,29.63,NNW,333,1.0,14.0,71,0.00,,,0.10,meteohub,2014-02-14 12:27:00,
2014-02-14 07:32:00,31.6,23.0,29.63,ESE,115,1.0,6.0,70,0.00,,,0.10,meteohub,2014-02-14 12:32:00,
2014-02-14 07:37:00,31.6,23.4,29.63,WSW,249,1.0,6.0,71,0.00,,,0.10,meteohub,2014-02-14 12:37:00,
2014-02-14 07:42:00,31.6,23.4,29.64,SE,127,5.0,9.0,71,0.00,,,0.10,meteohub,2014-02-14 12:42:00,
2014-02-14 07:47:00,31.8,23.5,29.64,South,173,0.0,9.0,71,0.00,,,0.10,meteohub,2014-02-14 12:47:00,
2014-02-14 07:52:00,31.8,23.5,29.65,SW,233,3.0,9.0,71,0.00,,,0.10,meteohub,2014-02-14 12:52:00,
2014-02-14 07:57:00,32.0,23.7,29.65,SE,124,1.0,10.0,71,0.00,,,0.10,meteohub,2014-02-14 12:57:00,
2014-02-14 08:02:00,32.0,23.7,29.65,South,170,1.0,10.0,71,0.00,,,0.10,meteohub,2014-02-14 13:02:00,
2014-02-14 08:07:00,32.0,23.7,29.66,WSW,238,1.0,10.0,71,0.00,,,0.10,meteohub,2014-02-14 13:07:00,
2014-02-14 08:12:00,32.0,23.7,29.66,East,99,2.0,6.0,71,0.00,,,0.10,meteohub,2014-02-14 13:12:00,
2014-02-14 08:17:00,32.0,23.7,29.66,SW,233,6.0,6.0,71,0.00,,,0.10,meteohub,2014-02-14 13:17:00,
2014-02-14 08:22:00,32.2,23.9,29.66,SW,219,1.0,9.0,71,0.00,,,0.10,meteohub,2014-02-14 13:22:00,
2014-02-14 08:27:00,32.2,23.9,29.67,SSW,200,0.0,9.0,71,0.00,,,0.10,meteohub,2014-02-14 13:27:00,
2014-02-14 08:33:00,32.4,24.1,29.67,WSW,245,0.0,9.0,71,0.00,,,0.10,meteohub,2014-02-14 13:33:00,
2014-02-14 08:38:00,32.4,23.7,29.67,WSW,250,4.0,7.0,70,0.00,,,0.10,meteohub,2014-02-14 13:38:00,
2014-02-14 08:43:00,32.5,23.9,29.68,ESE,105,5.0,14.0,70,0.00,,,0.10,meteohub,2014-02-14 13:43:00,
2014-02-14 08:48:00,32.5,23.5,29.68,West,264,1.0,14.0,69,0.00,,,0.10,meteohub,2014-02-14 13:48:00,
2014-02-14 08:53:00,32.5,23.5,29.67,SSE,153,0.0,14.0,69,0.00,,,0.10,meteohub,2014-02-14 13:53:00,
2014-02-14 08:58:00,32.5,23.5,29.68,SW,221,7.0,11.0,69,0.00,,,0.10,meteohub,2014-02-14 13:58:00,
2014-02-14 09:03:00,32.7,23.7,29.68,WSW,250,5.0,11.0,69,0.00,,,0.10,meteohub,2014-02-14 14:03:00,
2014-02-14 09:08:00,32.7,23.7,29.69,West,271,5.0,11.0,69,0.00,,,0.10,meteohub,2014-02-14 14:08:00,
2014-02-14 09:13:00,32.7,23.7,29.69,SSW,200,4.0,9.0,69,0.00,,,0.10,meteohub,2014-02-14 14:13:00,
2014-02-14 09:18:00,32.7,23.7,29.69,South,179,2.0,9.0,69,0.00,,,0.10,meteohub,2014-02-14 14:18:00,
2014-02-14 09:23:00,32.7,23.4,29.70,WSW,250,8.0,11.0,68,0.00,,,0.10,meteohub,2014-02-14 14:23:00,
2014-02-14 09:28:00,32.7,23.4,29.70,WSW,253,6.0,12.0,68,0.00,,,0.10,meteohub,2014-02-14 14:28:00,
2014-02-14 09:33:00,32.7,23.4,29.70,SW,228,7.0,12.0,68,0.00,,,0.10,meteohub,2014-02-14 14:33:00,
2014-02-14 09:38:00,32.7,23.7,29.71,WNW,285,3.0,14.0,69,0.00,,,0.10,meteohub,2014-02-14 14:38:00,
2014-02-14 09:43:00,32.7,23.4,29.71,West,276,4.0,14.0,68,0.00,,,0.10,meteohub,2014-02-14 14:43:00,
2014-02-14 09:48:00,32.7,23.4,29.71,SSW,197,5.0,14.0,68,0.00,,,0.10,meteohub,2014-02-14 14:48:00,
2014-02-14 09:53:00,32.7,23.7,29.71,SW,229,6.0,9.0,69,0.00,,,0.10,meteohub,2014-02-14 14:53:00,
2014-02-14 09:58:00,32.7,23.7,29.71,SW,219,4.0,12.0,69,0.01,,,0.10,meteohub,2014-02-14 14:58:00,
2014-02-14 10:03:00,32.7,23.7,29.72,SSW,194,1.0,12.0,69,0.02,,,0.12,meteohub,2014-02-14 15:03:00,
2014-02-14 10:09:00,32.7,23.7,29.72,SE,129,3.0,12.0,69,0.02,,,0.12,meteohub,2014-02-14 15:09:00,
2014-02-14 10:14:00,32.7,23.7,29.72,West,271,2.0,9.0,69,0.02,,,0.12,meteohub,2014-02-14 15:14:00,
2014-02-14 10:19:00,32.7,23.7,29.72,West,273,3.0,13.0,69,0.06,,,0.16,meteohub,2014-02-14 15:19:00,
2014-02-14 10:24:00,32.7,23.7,29.72,SSE,163,0.0,13.0,69,0.07,,,0.17,meteohub,2014-02-14 15:24:00,
2014-02-14 10:29:00,32.7,24.1,29.72,SW,221,1.0,13.0,70,0.07,,,0.17,meteohub,2014-02-14 15:29:00,
2014-02-14 10:34:00,32.7,23.7,29.72,South,191,3.0,9.0,69,0.07,,,0.17,meteohub,2014-02-14 15:34:00,
2014-02-14 10:39:00,32.7,23.7,29.73,WSW,253,3.0,9.0,69,0.07,,,0.17,meteohub,2014-02-14 15:39:00,
2014-02-14 10:44:00,32.7,23.7,29.73,SW,222,0.0,9.0,69,0.07,,,0.17,meteohub,2014-02-14 15:44:00,
2014-02-14 10:49:00,32.9,23.9,29.73,SSE,162,3.0,9.0,69,0.07,,,0.17,meteohub,2014-02-14 15:49:00,
2014-02-14 10:54:00,32.9,24.3,29.73,South,191,3.0,9.0,70,0.07,,,0.17,meteohub,2014-02-14 15:54:00,
2014-02-14 10:59:00,32.9,23.9,29.73,WSW,250,2.0,12.0,69,0.06,,,0.17,meteohub,2014-02-14 15:59:00,
2014-02-14 11:04:00,32.9,23.9,29.74,SSW,195,7.0,12.0,69,0.05,,,0.17,meteohub,2014-02-14 16:04:00,
2014-02-14 11:09:00,33.1,24.1,29.73,SSW,200,1.0,12.0,69,0.05,,,0.17,meteohub,2014-02-14 16:09:00,
2014-02-14 11:14:00,33.1,24.1,29.73,WSW,258,5.0,11.0,69,0.05,,,0.17,meteohub,2014-02-14 16:14:00,
2014-02-14 11:19:00,33.3,24.3,29.73,SSW,211,2.0,11.0,69,0.00,,,0.17,meteohub,2014-02-14 16:19:00,
2014-02-14 11:24:00,33.3,24.3,29.73,West,277,4.0,9.0,69,0.00,,,0.17,meteohub,2014-02-14 16:24:00,
2014-02-14 11:29:00,33.3,24.3,29.73,SSE,156,4.0,8.0,69,0.00,,,0.17,meteohub,2014-02-14 16:29:00,
2014-02-14 11:34:00,33.4,24.1,29.73,WSW,253,1.0,8.0,68,0.00,,,0.17,meteohub,2014-02-14 16:34:00,
2014-02-14 11:39:00,33.6,24.3,29.73,West,281,7.0,7.0,68,0.01,,,0.18,meteohub,2014-02-14 16:39:00,
2014-02-14 11:45:00,34.0,24.6,29.73,ENE,58,2.0,8.0,68,0.01,,,0.18,meteohub,2014-02-14 16:45:00,
2014-02-14 11:51:00,34.0,24.3,29.74,West,262,4.0,16.0,67,0.01,,,0.18,meteohub,2014-02-14 16:51:00,
2014-02-14 11:56:00,34.2,24.4,29.74,WNW,288,4.0,16.0,67,0.01,,,0.18,meteohub,2014-02-14 16:56:00,
2014-02-14 12:01:00,34.3,24.1,29.74,WNW,289,0.0,16.0,66,0.01,,,0.18,meteohub,2014-02-14 17:01:00,
2014-02-14 12:06:00,34.7,24.4,29.75,SSW,212,1.0,10.0,66,0.01,,,0.18,meteohub,2014-02-14 17:06:00,
2014-02-14 12:11:00,34.9,24.3,29.75,SSW,203,2.0,8.0,65,0.01,,,0.18,meteohub,2014-02-14 17:11:00,
2014-02-14 12:16:00,35.1,24.8,29.75,WSW,252,2.0,8.0,66,0.01,,,0.18,meteohub,2014-02-14 17:16:00,
2014-02-14 12:21:00,35.1,24.1,29.75,SSE,148,2.0,9.0,64,0.01,,,0.18,meteohub,2014-02-14 17:21:00,
2014-02-14 12:26:00,35.1,24.4,29.75,SSW,207,0.0,9.0,65,0.01,,,0.18,meteohub,2014-02-14 17:26:00,
2014-02-14 12:31:00,35.2,24.6,29.75,North,11,0.0,10.0,65,0.00,,,0.18,meteohub,2014-02-14 17:31:00,
2014-02-14 12:36:00,35.4,24.4,29.74,SW,215,1.0,10.0,64,0.00,,,0.18,meteohub,2014-02-14 17:36:00,
2014-02-14 12:41:00,35.6,25.0,29.74,West,262,0.0,10.0,65,0.00,,,0.18,meteohub,2014-02-14 17:41:00,
2014-02-14 12:46:00,36.7,25.3,29.74,WSW,249,0.0,7.0,63,0.00,,,0.18,meteohub,2014-02-14 17:46:00,
2014-02-14 12:51:00,36.7,25.0,29.74,SW,224,4.0,7.0,62,0.00,,,0.18,meteohub,2014-02-14 17:51:00,
2014-02-14 12:56:00,36.3,24.6,29.74,SW,217,1.0,6.0,62,0.00,,,0.18,meteohub,2014-02-14 17:56:00,
2014-02-14 13:01:00,36.5,24.3,29.74,WSW,250,7.0,11.0,61,0.00,,,0.18,meteohub,2014-02-14 18:01:00,
2014-02-14 13:06:00,36.3,24.6,29.73,SW,218,0.0,11.0,62,0.00,,,0.18,meteohub,2014-02-14 18:06:00,
2014-02-14 13:11:00,36.3,24.1,29.73,SW,231,2.0,11.0,61,0.00,,,0.18,meteohub,2014-02-14 18:11:00,
2014-02-14 13:16:00,36.9,25.0,29.73,West,265,6.0,11.0,62,0.00,,,0.18,meteohub,2014-02-14 18:16:00,
2014-02-14 13:21:00,37.4,24.8,29.73,West,269,5.0,11.0,60,0.00,,,0.18,meteohub,2014-02-14 18:21:00,
2014-02-14 13:26:00,37.8,25.2,29.72,WNW,297,3.0,11.0,60,0.00,,,0.18,meteohub,2014-02-14 18:26:00,
2014-02-14 13:31:00,37.6,24.6,29.72,WNW,284,3.0,11.0,59,0.00,,,0.18,meteohub,2014-02-14 18:31:00,
2014-02-14 13:37:00,37.8,24.8,29.72,WSW,258,1.0,9.0,59,0.00,,,0.18,meteohub,2014-02-14 18:37:00,
2014-02-14 13:42:00,37.6,24.6,29.72,NW,326,2.0,9.0,59,0.01,,,0.19,meteohub,2014-02-14 18:42:00,
2014-02-14 13:47:00,37.8,25.2,29.73,WNW,288,3.0,9.0,60,0.01,,,0.19,meteohub,2014-02-14 18:47:00,
2014-02-14 13:52:00,37.9,25.0,29.72,WNW,291,4.0,8.0,59,0.01,,,0.19,meteohub,2014-02-14 18:52:00,
2014-02-14 13:57:00,38.1,25.0,29.72,West,281,4.0,11.0,59,0.01,,,0.19,meteohub,2014-02-14 18:57:00,
2014-02-14 14:02:00,38.1,24.6,29.72,WSW,252,2.0,11.0,58,0.01,,,0.19,meteohub,2014-02-14 19:02:00,
2014-02-14 14:07:00,38.1,25.0,29.73,SSW,200,4.0,11.0,59,0.01,,,0.19,meteohub,2014-02-14 19:07:00,
2014-02-14 14:12:00,38.1,25.0,29.73,SW,235,2.0,12.0,59,0.01,,,0.19,meteohub,2014-02-14 19:12:00,
2014-02-14 14:17:00,38.5,25.3,29.73,WNW,287,4.0,14.0,59,0.01,,,0.19,meteohub,2014-02-14 19:17:00,
2014-02-14 14:22:00,38.7,25.5,29.74,WNW,295,3.0,14.0,59,0.02,,,0.20,meteohub,2014-02-14 19:22:00,
2014-02-14 14:27:00,38.8,25.7,29.74,NW,325,1.0,14.0,59,0.02,,,0.20,meteohub,2014-02-14 19:27:00,
2014-02-14 14:32:00,39.0,25.9,29.74,NNW,342,1.0,7.0,59,0.02,,,0.20,meteohub,2014-02-14 19:32:00,
2014-02-14 14:37:00,38.8,25.3,29.73,WNW,290,3.0,7.0,58,0.01,,,0.20,meteohub,2014-02-14 19:37:00,
2014-02-14 14:42:00,39.0,25.5,29.73,ENE,58,1.0,10.0,58,0.01,,,0.20,meteohub,2014-02-14 19:42:00,
2014-02-14 14:47:00,39.7,26.2,29.73,SSW,208,1.0,10.0,58,0.01,,,0.20,meteohub,2014-02-14 19:47:00,
2014-02-14 14:52:00,39.4,25.3,29.73,West,263,6.0,10.0,57,0.01,,,0.20,meteohub,2014-02-14 19:52:00,
2014-02-14 14:57:00,39.0,25.5,29.72,NNE,19,0.0,9.0,58,0.01,,,0.20,meteohub,2014-02-14 19:57:00,
2014-02-14 15:02:00,39.0,25.5,29.73,SSW,211,0.0,9.0,58,0.01,,,0.20,meteohub,2014-02-14 20:02:00,
2014-02-14 15:07:00,39.7,25.3,29.73,WNW,290,2.0,6.0,56,0.01,,,0.20,meteohub,2014-02-14 20:07:00,
2014-02-14 15:13:00,40.3,25.9,29.72,NE,52,0.0,10.0,56,0.02,,,0.21,meteohub,2014-02-14 20:13:00,
2014-02-14 15:18:00,40.3,25.0,29.72,SE,130,1.0,10.0,54,0.02,,,0.21,meteohub,2014-02-14 20:18:00,
2014-02-14 15:23:00,40.6,25.7,29.72,SW,217,1.0,10.0,55,0.01,,,0.21,meteohub,2014-02-14 20:23:00,
2014-02-14 15:28:00,40.3,25.0,29.72,WSW,239,4.0,10.0,54,0.01,,,0.21,meteohub,2014-02-14 20:28:00,
2014-02-14 15:33:00,40.5,25.5,29.72,West,280,0.0,9.0,55,0.01,,,0.21,meteohub,2014-02-14 20:33:00,
2014-02-14 15:38:00,40.6,24.8,29.72,West,269,0.0,9.0,53,0.01,,,0.21,meteohub,2014-02-14 20:38:00,
2014-02-14 15:43:00,40.6,24.8,29.72,WNW,296,0.0,9.0,53,0.01,,,0.21,meteohub,2014-02-14 20:43:00,
2014-02-14 15:48:00,40.6,25.3,29.73,West,271,1.0,7.0,54,0.01,,,0.21,meteohub,2014-02-14 20:48:00,
2014-02-14 15:53:00,40.6,24.8,29.72,SSW,207,3.0,7.0,53,0.01,,,0.21,meteohub,2014-02-14 20:53:00,
2014-02-14 15:58:00,40.6,25.3,29.72,South,176,2.0,7.0,54,0.02,,,0.22,meteohub,2014-02-14 20:58:00,
2014-02-14 16:03:00,40.8,25.5,29.73,WSW,255,0.0,7.0,54,0.02,,,0.22,meteohub,2014-02-14 21:03:00,
2014-02-14 16:08:00,41.5,26.1,29.72,WNW,288,1.0,5.0,54,0.02,,,0.22,meteohub,2014-02-14 21:08:00,
2014-02-14 16:13:00,41.5,25.2,29.72,WSW,246,3.0,5.0,52,0.01,,,0.22,meteohub,2014-02-14 21:13:00,
2014-02-14 16:18:00,41.7,25.3,29.72,West,271,1.0,6.0,52,0.01,,,0.22,meteohub,2014-02-14 21:18:00,
2014-02-14 16:23:00,41.4,25.0,29.71,WNW,283,3.0,6.0,52,0.01,,,0.22,meteohub,2014-02-14 21:23:00,
2014-02-14 16:28:00,41.0,24.8,29.71,WSW,252,4.0,6.0,52,0.01,,,0.22,meteohub,2014-02-14 21:28:00,
2014-02-14 16:33:00,40.6,25.3,29.72,SE,142,0.0,6.0,54,0.01,,,0.22,meteohub,2014-02-14 21:33:00,
2014-02-14 16:38:00,40.1,24.8,29.72,South,189,0.0,6.0,54,0.01,,,0.22,meteohub,2014-02-14 21:38:00,
2014-02-14 16:43:00,39.9,25.5,29.73,SW,227,0.0,7.0,56,0.02,,,0.23,meteohub,2014-02-14 21:43:00,
2014-02-14 16:48:00,39.9,25.0,29.73,WSW,256,1.0,7.0,55,0.02,,,0.23,meteohub,2014-02-14 21:48:00,
2014-02-14 16:54:00,39.7,25.0,29.73,WNW,298,1.0,7.0,55,0.02,,,0.23,meteohub,2014-02-14 21:54:00,
2014-02-14 16:59:00,39.6,25.2,29.73,South,177,2.0,4.0,56,0.01,,,0.23,meteohub,2014-02-14 21:59:00,
2014-02-14 17:04:00,39.6,25.2,29.73,West,263,0.0,4.0,56,0.02,,,0.24,meteohub,2014-02-14 22:04:00,
2014-02-14 17:09:00,39.6,25.5,29.73,WSW,257,2.0,6.0,57,0.02,,,0.24,meteohub,2014-02-14 22:09:00,
2014-02-14 17:14:00,39.6,25.5,29.73,West,277,0.0,6.0,57,0.02,,,0.24,meteohub,2014-02-14 22:14:00,
2014-02-14 17:19:00,39.4,25.3,29.73,West,265,0.0,4.0,57,0.03,,,0.25,meteohub,2014-02-14 22:19:00,
2014-02-14 17:24:00,39.2,25.2,29.73,ENE,70,0.0,4.0,57,0.03,,,0.25,meteohub,2014-02-14 22:24:00,
2014-02-14 17:29:00,39.2,25.2,29.73,SSE,158,1.0,4.0,57,0.03,,,0.25,meteohub,2014-02-14 22:29:00,
2014-02-14 17:34:00,39.0,25.2,29.73,West,268,1.0,4.0,57,0.04,,,0.26,meteohub,2014-02-14 22:34:00,
2014-02-14 17:39:00,39.0,25.9,29.73,SW,228,0.0,4.0,59,0.04,,,0.26,meteohub,2014-02-14 22:39:00,
2014-02-14 17:44:00,38.8,25.3,29.73,SSW,212,0.0,2.0,58,0.03,,,0.26,meteohub,2014-02-14 22:44:00,
2014-02-14 17:49:00,38.5,25.0,29.73,SSW,212,0.0,2.0,58,0.03,,,0.26,meteohub,2014-02-14 22:49:00,
2014-02-14 17:54:00,38.3,25.7,29.74,SW,214,0.0,2.0,60,0.04,,,0.27,meteohub,2014-02-14 22:54:00,
2014-02-14 17:55:00,38.1,25.5,29.74,ESE,120,0.0,2.0,60,0.04,,,0.27,meteohub,2014-02-14 22:55:00,
2014-02-14 18:00:00,37.9,23.7,29.73,WSW,255,0.0,0.0,56,0.03,,,0.27,meteohub,2014-02-14 23:00:00,
2014-02-14 18:05:00,37.9,24.1,29.74,WSW,254,0.0,1.0,57,0.03,,,0.27,meteohub,2014-02-14 23:05:00,
2014-02-14 18:10:00,37.6,25.7,29.74,SSE,162,0.0,1.0,62,0.04,,,0.28,meteohub,2014-02-14 23:10:00,
2014-02-14 18:16:00,37.2,24.3,29.74,SSE,162,0.0,1.0,59,0.03,,,0.28,meteohub,2014-02-14 23:16:00,
2014-02-14 18:21:00,37.2,24.6,29.75,SSE,162,0.0,0.0,60,0.03,,,0.28,meteohub,2014-02-14 23:21:00,
2014-02-14 18:26:00,37.6,23.4,29.74,ESE,109,0.0,0.0,56,0.03,,,0.28,meteohub,2014-02-14 23:26:00,
2014-02-14 18:31:00,37.8,23.9,29.74,ESE,109,0.0,1.0,57,0.02,,,0.28,meteohub,2014-02-14 23:31:00,
2014-02-14 18:36:00,37.6,24.1,29.73,ESE,108,0.0,1.0,58,0.03,,,0.29,meteohub,2014-02-14 23:36:00,
2014-02-14 18:41:00,37.2,25.0,29.74,SE,143,0.0,1.0,61,0.03,,,0.29,meteohub,2014-02-14 23:41:00,
2014-02-14 18:46:00,36.9,24.3,29.74,SE,143,0.0,1.0,60,0.02,,,0.29,meteohub,2014-02-14 23:46:00,
2014-02-14 18:51:00,36.9,24.3,29.74,SE,134,0.0,1.0,60,0.02,,,0.29,meteohub,2014-02-14 23:51:00,
2014-02-14 18:56:00,36.9,25.5,29.74,SE,139,0.0,1.0,63,0.02,,,0.29,meteohub,2014-02-14 23:56:00,
2014-02-14 19:01:00,36.9,24.6,29.74,SSE,156,0.0,1.0,61,0.02,,,0.29,meteohub,2014-02-15 00:01:00,
2014-02-14 19:06:00,37.0,25.2,29.73,SW,224,0.0,1.0,62,0.02,,,0.29,meteohub,2014-02-15 00:06:00,
2014-02-14 19:11:00,37.0,25.2,29.73,SE,136,0.0,1.0,62,0.01,,,0.29,meteohub,2014-02-15 00:11:00,
2014-02-14 19:16:00,36.9,25.5,29.73,SE,136,0.0,1.0,63,0.01,,,0.29,meteohub,2014-02-15 00:16:00,
2014-02-14 19:21:00,36.7,25.7,29.73,SSW,208,0.0,1.0,64,0.01,,,0.29,meteohub,2014-02-15 00:21:00,
2014-02-14 19:26:00,36.9,27.3,29.73,East,86,2.0,3.0,68,0.01,,,0.29,meteohub,2014-02-15 00:26:00,
2014-02-14 19:31:00,36.7,28.2,29.73,SW,224,5.0,5.0,71,0.02,,,0.30,meteohub,2014-02-15 00:31:00,
2014-02-14 19:36:00,36.5,28.9,29.73,WSW,246,4.0,6.0,74,0.01,,,0.30,meteohub,2014-02-15 00:36:00,
2014-02-14 19:41:00,36.1,29.3,29.72,West,270,1.0,9.0,76,0.01,,,0.30,meteohub,2014-02-15 00:41:00,
2014-02-14 19:46:00,36.0,29.8,29.73,West,262,0.0,9.0,78,0.01,,,0.30,meteohub,2014-02-15 00:46:00,
2014-02-14 19:51:00,35.8,29.8,29.73,WSW,239,3.0,9.0,79,0.01,,,0.30,meteohub,2014-02-15 00:51:00,
2014-02-14 19:56:00,35.4,29.8,29.73,WSW,253,0.0,8.0,80,0.01,,,0.30,meteohub,2014-02-15 00:56:00,
2014-02-14 20:02:00,35.2,30.0,29.73,ENE,75,0.0,8.0,81,0.01,,,0.30,meteohub,2014-02-15 01:02:00,
2014-02-14 20:07:00,35.1,29.8,29.73,SW,217,0.0,4.0,81,0.01,,,0.30,meteohub,2014-02-15 01:07:00,
2014-02-14 20:12:00,35.1,30.2,29.73,SSE,158,0.0,6.0,82,0.01,,,0.30,meteohub,2014-02-15 01:12:00,
2014-02-14 20:17:00,34.9,30.2,29.73,ESE,122,0.0,6.0,83,0.01,,,0.30,meteohub,2014-02-15 01:17:00,
2014-02-14 20:22:00,34.9,30.2,29.73,South,184,0.0,6.0,83,0.01,,,0.30,meteohub,2014-02-15 01:22:00,
2014-02-14 20:27:00,34.7,30.0,29.73,South,181,0.0,3.0,83,0.01,,,0.30,meteohub,2014-02-15 01:27:00,
2014-02-14 20:32:00,34.5,30.2,29.73,South,181,0.0,1.0,84,0.00,,,0.30,meteohub,2014-02-15 01:32:00,
2014-02-14 20:37:00,34.5,30.2,29.73,East,98,0.0,1.0,84,0.01,,,0.31,meteohub,2014-02-15 01:37:00,
2014-02-14 20:42:00,34.5,30.2,29.73,East,98,0.0,1.0,84,0.01,,,0.31,meteohub,2014-02-15 01:42:00,
2014-02-14 20:47:00,34.3,30.4,29.73,East,96,0.0,1.0,85,0.01,,,0.31,meteohub,2014-02-15 01:47:00,
2014-02-14 20:52:00,34.2,30.2,29.73,East,96,0.0,1.0,85,0.01,,,0.31,meteohub,2014-02-15 01:52:00,
2014-02-14 20:57:00,34.0,30.0,29.73,WSW,237,0.0,1.0,85,0.01,,,0.31,meteohub,2014-02-15 01:57:00,
2014-02-14 21:02:00,33.6,29.8,29.73,WSW,238,0.0,0.0,86,0.01,,,0.31,meteohub,2014-02-15 02:02:00,
2014-02-14 21:07:00,33.6,30.2,29.73,SE,146,0.0,0.0,87,0.01,,,0.31,meteohub,2014-02-15 02:07:00,
2014-02-14 21:12:00,33.6,30.2,29.73,ESE,117,0.0,0.0,87,0.01,,,0.31,meteohub,2014-02-15 02:12:00,
2014-02-14 21:17:00,33.6,29.8,29.73,ESE,117,0.0,0.0,86,0.01,,,0.31,meteohub,2014-02-15 02:17:00,
2014-02-14 21:22:00,33.4,30.0,29.73,ESE,117,0.0,0.0,87,0.01,,,0.31,meteohub,2014-02-15 02:22:00,
2014-02-14 21:27:00,33.4,30.0,29.74,ESE,118,0.0,0.0,87,0.01,,,0.31,meteohub,2014-02-15 02:27:00,
2014-02-14 21:32:00,33.3,30.0,29.74,ESE,119,0.0,0.0,88,0.01,,,0.31,meteohub,2014-02-15 02:32:00,
2014-02-14 21:37:00,33.1,29.8,29.74,ESE,118,0.0,0.0,88,0.00,,,0.31,meteohub,2014-02-15 02:37:00,
2014-02-14 21:43:00,33.1,30.2,29.75,ESE,119,0.0,0.0,89,0.00,,,0.31,meteohub,2014-02-15 02:43:00,
2014-02-14 21:48:00,32.9,30.0,29.75,ESE,118,0.0,0.0,89,0.00,,,0.31,meteohub,2014-02-15 02:48:00,
2014-02-14 21:53:00,32.7,30.2,29.75,ESE,118,0.0,0.0,90,0.00,,,0.31,meteohub,2014-02-15 02:53:00,
2014-02-14 21:58:00,32.5,30.0,29.75,ESE,119,0.0,0.0,90,0.00,,,0.31,meteohub,2014-02-15 02:58:00,
2014-02-14 22:03:00,32.5,30.2,29.75,ESE,119,0.0,0.0,91,0.00,,,0.31,meteohub,2014-02-15 03:03:00,
2014-02-14 22:08:00,32.4,30.0,29.75,ESE,118,0.0,0.0,91,0.00,,,0.31,meteohub,2014-02-15 03:08:00,
2014-02-14 22:13:00,32.4,30.0,29.75,ESE,118,0.0,0.0,91,0.00,,,0.31,meteohub,2014-02-15 03:13:00,
2014-02-14 22:18:00,32.4,30.0,29.75,ESE,118,0.0,0.0,91,0.00,,,0.31,meteohub,2014-02-15 03:18:00,
2014-02-14 22:23:00,32.2,29.8,29.75,ESE,119,0.0,0.0,91,0.00,,,0.31,meteohub,2014-02-15 03:23:00,
2014-02-14 22:28:00,32.2,29.8,29.75,ESE,119,0.0,0.0,91,0.00,,,0.31,meteohub,2014-02-15 03:28:00,
2014-02-14 22:33:00,32.2,29.8,29.74,ESE,118,0.0,0.0,91,0.00,,,0.31,meteohub,2014-02-15 03:33:00,
2014-02-14 22:38:00,32.0,30.0,29.74,ESE,119,0.0,0.0,92,0.00,,,0.31,meteohub,2014-02-15 03:38:00,
2014-02-14 22:43:00,32.0,30.0,29.74,ESE,118,0.0,0.0,92,0.00,,,0.31,meteohub,2014-02-15 03:43:00,
2014-02-14 22:48:00,31.8,29.8,29.74,ESE,119,0.0,0.0,92,0.00,,,0.31,meteohub,2014-02-15 03:48:00,
2014-02-14 22:53:00,31.8,29.8,29.74,ESE,118,0.0,0.0,92,0.00,,,0.31,meteohub,2014-02-15 03:53:00,
2014-02-14 22:58:00,31.8,29.8,29.74,ESE,119,0.0,0.0,92,0.00,,,0.31,meteohub,2014-02-15 03:58:00,
2014-02-14 23:03:00,31.8,29.8,29.74,ESE,118,0.0,0.0,92,0.00,,,0.31,meteohub,2014-02-15 04:03:00,
2014-02-14 23:08:00,31.8,29.8,29.74,ESE,119,0.0,0.0,92,0.00,,,0.31,meteohub,2014-02-15 04:08:00,
2014-02-14 23:13:00,31.8,29.8,29.74,ESE,118,0.0,0.0,92,0.00,,,0.31,meteohub,2014-02-15 04:13:00,
2014-02-14 23:18:00,31.8,30.0,29.73,ESE,118,0.0,0.0,93,0.00,,,0.31,meteohub,2014-02-15 04:18:00,
2014-02-14 23:23:00,31.8,30.0,29.73,ESE,119,0.0,0.0,93,0.00,,,0.31,meteohub,2014-02-15 04:23:00,
2014-02-14 23:29:00,31.8,30.0,29.73,ESE,119,0.0,0.0,93,0.00,,,0.31,meteohub,2014-02-15 04:29:00,
2014-02-14 23:34:00,31.8,30.0,29.73,ESE,118,0.0,0.0,93,0.00,,,0.31,meteohub,2014-02-15 04:34:00,
2014-02-14 23:39:00,31.8,30.0,29.72,ESE,118,0.0,0.0,93,0.00,,,0.31,meteohub,2014-02-15 04:39:00,
2014-02-14 23:44:00,31.8,30.0,29.72,ESE,119,0.0,0.0,93,0.00,,,0.31,meteohub,2014-02-15 04:44:00,
2014-02-14 23:49:00,31.8,30.0,29.72,ESE,119,0.0,0.0,93,0.00,,,0.31,meteohub,2014-02-15 04:49:00,
2014-02-14 23:54:00,31.8,30.0,29.72,ESE,118,0.0,0.0,93,0.00,,,0.31,meteohub,2014-02-15 04:54:00,
2014-02-14 23:59:00,31.8,30.0,29.72,ESE,118,0.0,0.0,93,0.00,,,0.31,meteohub,2014-02-15 04:59:00,